DW2070 Weather Reports


Display with metric or nautical units.
time (UTC)temp
F
wind
direction
speed
MPH
gust
MPH
rain 1hr
in
rain 24hr
in
rain mn
in
humidity
%
barometer
mb
20260906054004 68 0 1.0 0.0 0.00 0.00 0.00 77 1013.4
20260906053005 68 257 0.0 3.0 0.00 0.00 0.00 76 1013.5
20260906052004 68 0 0.0 1.0 0.00 0.00 0.00 76 1013.6
20260906051004 69 0 0.0 0.0 0.00 0.00 0.00 76 1013.7
20260906050025 69 0 0.0 0.0 0.00 0.00 0.00 76 1013.7
20260906045004 69 0 0.0 0.0 0.00 0.00 0.00 75 1013.8
20260906044004 70 0 0.0 0.0 0.00 0.00 0.00 75 1013.8
20260906043004 70 0 0.0 0.0 0.00 0.00 0.00 75 1013.8
20260906042004 70 0 0.0 0.0 0.00 0.00 0.00 75 1013.8
20260906041004 70 247 1.0 4.0 0.00 0.00 0.00 75 1013.6
20260906040025 71 246 1.0 4.0 0.00 0.00 0.00 75 1013.7
20260906035004 71 246 0.0 3.0 0.00 0.00 0.00 73 1013.6
20260906034025 72 246 1.0 2.0 0.00 0.00 0.00 72 1013.5
20260906033004 72 246 0.0 3.0 0.00 0.00 0.00 71 1013.3
20260906032004 72 246 1.0 3.0 0.00 0.00 0.00 70 1013.2
20260906031025 72 246 1.0 4.0 0.00 0.00 0.00 70 1013.2
20260906030004 73 247 1.0 2.0 0.00 0.00 0.00 68 1013.1
20260906025004 73 248 1.0 4.0 0.00 0.00 0.00 67 1013.1
20260906024004 74 248 1.0 4.0 0.00 0.00 0.00 65 1013.0
20260906023004 74 245 2.0 4.0 0.00 0.00 0.00 64 1013.1
20260906022004 75 246 3.0 5.0 0.00 0.00 0.00 63 1013.1
20260906021004 75 247 3.0 7.0 0.00 0.00 0.00 61 1013.0
20260906020004 76 251 3.0 6.0 0.00 0.00 0.00 62 1013.0
20260906015004 77 258 3.0 9.0 0.00 0.00 0.00 60 1012.9
20260906014004 78 277 3.0 9.0 0.00 0.00 0.00 58 1012.8
20260906013004 79 276 3.0 9.0 0.00 0.00 0.00 55 1012.9
20260906012004 80 282 3.0 8.0 0.00 0.00 0.00 52 1012.9
20260906011004 81 303 4.0 9.0 0.00 0.00 0.00 51 1013.0
20260906010004 82 252 5.0 10.0 0.00 0.00 0.00 46 1013.0
20260906005004 83 257 5.0 10.0 0.00 0.00 0.00 46 1013.0
20260906004004 84 262 5.0 11.0 0.00 0.00 0.00 43 1012.9
20260906003004 84 268 5.0 10.0 0.00 0.00 0.00 43 1012.8
20260906002004 85 257 4.0 11.0 0.00 0.00 0.00 42 1012.8
20260906001004 85 241 4.0 11.0 0.00 0.00 0.00 40 1012.7
20260906000004 86 251 5.0 12.0 0.00 0.00 0.00 40 1012.6
20260905235004 85 244 5.0 10.0 0.00 0.00 0.00 41 1012.7
20260905234025 86 257 5.0 11.0 0.00 0.00 0.00 40 1012.7
20260905233004 86 260 5.0 11.0 0.00 0.00 0.00 40 1012.8
20260905232004 86 246 5.0 13.0 0.00 0.00 0.00 41 1012.8
20260905231004 87 254 5.0 12.0 0.00 0.00 0.00 38 1012.8
20260905230004 87 264 5.0 11.0 0.00 0.00 0.00 38 1012.9
20260905225004 86 255 6.0 11.0 0.00 0.00 0.00 37 1012.9
20260905224004 86 250 5.0 14.0 0.00 0.00 0.00 39 1012.9
20260905223004 86 249 5.0 11.0 0.00 0.00 0.00 42 1012.9
20260905222004 86 265 6.0 13.0 0.00 0.00 0.00 43 1013.0
20260905221004 86 260 5.0 12.0 0.00 0.00 0.00 43 1013.0
20260905220004 86 248 6.0 13.0 0.00 0.00 0.00 44 1013.0
20260905215004 86 263 6.0 14.0 0.00 0.00 0.00 45 1013.1
20260905214004 87 244 5.0 12.0 0.00 0.00 0.00 46 1013.3
20260905213004 86 257 6.0 13.0 0.00 0.00 0.00 48 1013.3
20260905212004 86 250 5.0 16.0 0.00 0.00 0.00 49 1013.4
20260905211004 86 247 6.0 9.0 0.00 0.00 0.00 49 1013.4
20260905210004 86 263 6.0 14.0 0.00 0.00 0.00 50 1013.4
20260905205004 86 258 6.0 12.0 0.00 0.00 0.00 49 1013.6
20260905204004 86 249 6.0 16.0 0.00 0.00 0.00 50 1013.6
20260905203025 86 251 6.0 13.0 0.00 0.00 0.00 49 1013.8
20260905202004 85 251 5.0 12.0 0.00 0.00 0.00 49 1013.9
20260905201004 85 243 5.0 11.0 0.00 0.00 0.00 50 1013.9
20260905200004 86 247 5.0 11.0 0.00 0.00 0.00 50 1014.1
20260905195004 85 260 5.0 11.0 0.00 0.00 0.00 49 1014.2
20260905194004 86 252 5.0 10.0 0.00 0.00 0.00 48 1014.3
20260905193004 86 251 4.0 11.0 0.00 0.00 0.00 47 1014.4
20260905192025 85 234 4.0 9.0 0.00 0.00 0.00 47 1014.4
20260905191025 86 240 3.0 9.0 0.00 0.00 0.00 45 1014.5
20260905190004 86 248 3.0 8.0 0.00 0.00 0.00 41 1014.7
20260905185025 85 224 2.0 7.0 0.00 0.00 0.00 40 1014.6
20260905184004 85 258 2.0 5.0 0.00 0.00 0.00 41 1014.8
20260905183004 85 266 1.0 8.0 0.00 0.00 0.00 43 1014.8
20260905182004 85 232 1.0 4.0 0.00 0.00 0.00 40 1014.8
20260905181025 84 242 2.0 3.0 0.00 0.00 0.00 43 1014.8
20260905180025 83 268 2.0 7.0 0.00 0.00 0.00 46 1015.0
20260905175004 82 274 2.0 7.0 0.00 0.00 0.00 51 1014.9
20260905173004 81 0 0.0 0.0 0.00 0.00 0.00 52 1015.0
20260905172004 80 0 0.0 0.0 0.00 0.00 0.00 53 1014.8
20260905171025 79 0 0.0 0.0 0.00 0.00 0.00 54 1014.9
20260905170004 80 0 0.0 0.0 0.00 0.00 0.00 57 1014.9
20260905165004 79 0 0.0 0.0 0.00 0.00 0.00 60 1014.9
20260905164004 78 0 0.0 0.0 0.00 0.00 0.00 61 1014.7
20260905163025 77 0 0.0 0.0 0.00 0.00 0.00 63 1014.8
20260905162004 76 0 0.0 0.0 0.00 0.00 0.00 64 1014.7
20260905161003 74 0 0.0 0.0 0.00 0.00 0.00 67 1014.7
20260905160004 72 0 0.0 0.0 0.00 0.00 0.00 76 1014.7
20260905155004 66 0 0.0 0.0 0.00 0.00 0.00 85 1014.6
20260905154024 64 0 1.0 1.0 0.00 0.00 0.00 85 1014.6
20260905153004 63 0 0.0 0.0 0.00 0.00 0.00 85 1014.5
20260905152003 63 107 2.0 2.0 0.00 0.00 0.00 85 1014.5
20260905151003 62 102 2.0 4.0 0.00 0.00 0.00 85 1014.5
20260905150003 61 100 2.0 4.0 0.00 0.00 0.00 86 1014.4
20260905145003 61 105 2.0 6.0 0.00 0.00 0.00 86 1014.3
20260905144004 60 102 2.0 4.0 0.00 0.00 0.00 86 1014.3
20260905143003 60 112 2.0 6.0 0.00 0.00 0.00 86 1014.2
20260905142003 60 81 1.0 4.0 0.00 0.00 0.00 86 1014.1
20260905141003 60 85 1.0 4.0 0.00 0.00 0.00 86 1014.0
20260905140004 60 71 2.0 4.0 0.00 0.00 0.00 86 1013.9
20260905135003 60 73 2.0 6.0 0.00 0.00 0.00 86 1013.8
20260905134003 60 59 2.0 5.0 0.00 0.00 0.00 86 1013.6
20260905132003 60 64 3.0 5.0 0.00 0.00 0.00 86 1013.4
20260905131004 60 67 4.0 6.0 0.00 0.00 0.00 86 1013.3
20260905130025 60 69 4.0 9.0 0.00 0.00 0.00 86 1013.3
20260905125003 60 66 4.0 9.0 0.00 0.00 0.00 87 1013.3
20260905124003 60 61 4.0 7.0 0.00 0.00 0.00 87 1013.4
20260905122003 61 63 4.0 9.0 0.00 0.00 0.00 87 1013.2
20260905121024 61 63 3.0 8.0 0.00 0.00 0.00 87 1013.1
20260905120003 61 71 3.0 6.0 0.00 0.00 0.00 87 1013.1
20260905115003 61 78 3.0 7.0 0.00 0.00 0.00 87 1013.2
20260905114003 61 82 2.0 6.0 0.00 0.00 0.00 87 1013.2
20260905113003 61 84 3.0 6.0 0.00 0.00 0.00 87 1013.2
20260905112003 61 66 3.0 6.0 0.00 0.00 0.00 87 1013.2
20260905110003 61 60 3.0 6.0 0.00 0.00 0.00 87 1013.3
20260905105003 61 64 3.0 8.0 0.00 0.00 0.00 86 1013.3
20260905104003 61 60 4.0 6.0 0.00 0.00 0.00 86 1013.3
20260905103003 61 67 3.0 7.0 0.00 0.00 0.00 86 1013.2
20260905102003 61 62 2.0 4.0 0.00 0.00 0.00 86 1013.2
20260905101024 61 57 2.0 5.0 0.00 0.00 0.00 86 1013.3
20260905100003 62 55 2.0 5.0 0.00 0.00 0.00 86 1013.3
20260905095003 62 57 2.0 5.0 0.00 0.00 0.00 86 1013.5
20260905094003 62 62 2.0 5.0 0.00 0.00 0.00 86 1013.5
20260905093003 62 71 3.0 6.0 0.00 0.00 0.00 86 1013.5
20260905092003 62 66 2.0 5.0 0.00 0.00 0.00 86 1013.4
20260905091003 63 65 3.0 6.0 0.00 0.00 0.00 86 1013.5
20260905090003 63 67 2.0 6.0 0.00 0.00 0.00 85 1013.7
20260905085003 63 66 2.0 4.0 0.00 0.00 0.00 85 1013.8
20260905084003 64 67 2.0 4.0 0.00 0.00 0.00 84 1013.9
20260905083024 64 67 1.0 4.0 0.00 0.00 0.00 84 1014.1
20260905082003 64 67 1.0 5.0 0.00 0.00 0.00 83 1013.9
20260905081003 65 67 3.0 5.0 0.00 0.00 0.00 83 1013.9
20260905080003 65 151 2.0 6.0 0.00 0.00 0.00 82 1014.0
20260905075003 66 199 2.0 4.0 0.00 0.00 0.00 82 1014.1
20260905074003 66 202 1.0 4.0 0.00 0.00 0.00 82 1013.9
20260905073003 67 204 2.0 4.0 0.00 0.00 0.00 82 1014.1
20260905072005 67 205 1.0 4.0 0.00 0.00 0.00 82 1014.0
20260905071005 68 0 0.0 4.0 0.00 0.00 0.00 82 1014.0
20260905070005 68 0 0.0 0.0 0.00 0.00 0.00 84 1013.9
20260905065005 68 0 0.0 0.0 0.00 0.00 0.00 84 1013.7
20260905064004 68 0 0.0 1.0 0.00 0.00 0.00 84 1013.8
20260905063005 68 256 1.0 2.0 0.00 0.00 0.00 84 1013.7
20260905062005 68 256 1.0 3.0 0.00 0.00 0.00 84 1013.7
20260905060004 68 260 0.0 2.0 0.00 0.00 0.00 84 1013.8